Time,TemperatureF,DewpointF,PressureIn,WindDirection,WindDirectionDegrees,WindSpeedMPH,WindSpeedGustMPH,Humidity,HourlyPrecipIn,Conditions,Clouds,dailyrainin,SoftwareType,DateUTC
2013-04-03 00:02:00,22.0,18.0,-100.00,NNE,30,0.0,1.0,82,0.00,,,-99.99,,2013-04-03 05:02:00,
2013-04-03 00:12:00,21.0,17.0,-100.00,NNE,30,0.0,1.0,84,0.00,,,-99.99,,2013-04-03 05:12:00,
2013-04-03 00:22:00,21.0,17.0,-100.00,NNE,30,0.0,1.0,84,0.00,,,-99.99,,2013-04-03 05:22:00,
2013-04-03 00:32:00,25.0,22.0,-100.00,NE,35,2.0,4.0,86,0.00,,,-99.99,,2013-04-03 05:32:00,
2013-04-03 00:42:00,25.0,22.0,-100.00,NE,35,2.0,4.0,86,0.00,,,-99.99,,2013-04-03 05:42:00,
2013-04-03 00:52:00,25.0,22.0,-100.00,NE,35,2.0,4.0,86,0.00,,,-99.99,,2013-04-03 05:52:00,
2013-04-03 01:02:00,25.0,22.0,-100.00,NE,35,2.0,4.0,86,0.00,,,-99.99,,2013-04-03 06:02:00,
2013-04-03 01:12:00,20.0,17.0,-100.00,West,275,0.0,0.0,87,0.00,,,-99.99,,2013-04-03 06:12:00,
2013-04-03 01:22:00,20.0,17.0,-100.00,West,265,0.0,0.0,88,0.00,,,-99.99,,2013-04-03 06:22:00,
2013-04-03 01:32:00,20.0,18.0,-100.00,NNE,25,0.0,0.0,90,0.00,,,-99.99,,2013-04-03 06:32:00,
2013-04-03 01:42:00,20.0,18.0,-100.00,NNE,25,0.0,0.0,90,0.00,,,-99.99,,2013-04-03 06:42:00,
2013-04-03 01:52:00,20.0,18.0,-100.00,NW,320,0.0,1.0,90,0.00,,,-99.99,,2013-04-03 06:52:00,
2013-04-03 02:02:00,20.0,18.0,-100.00,NW,320,0.0,1.0,90,0.00,,,-99.99,,2013-04-03 07:02:00,
2013-04-03 02:12:00,19.0,17.0,-100.00,NW,320,0.0,0.0,91,0.00,,,-99.99,,2013-04-03 07:12:00,
2013-04-03 02:23:00,19.0,17.0,-100.00,NW,325,0.0,0.0,91,0.00,,,-99.99,,2013-04-03 07:23:00,
2013-04-03 02:32:00,19.0,17.0,-100.00,WNW,295,0.0,0.0,92,0.00,,,-99.99,,2013-04-03 07:32:00,
2013-04-03 02:42:00,19.0,17.0,-100.00,West,260,0.0,0.0,92,0.00,,,-99.99,,2013-04-03 07:42:00,
2013-04-03 02:53:00,19.0,18.0,-100.00,WSW,255,0.0,0.0,92,0.00,,,-99.99,,2013-04-03 07:53:00,
2013-04-03 03:03:00,19.0,18.0,-100.00,WSW,255,0.0,0.0,92,0.00,,,-99.99,,2013-04-03 08:03:00,
2013-04-03 03:12:00,19.0,18.0,-100.00,WSW,255,0.0,0.0,92,0.00,,,-99.99,,2013-04-03 08:12:00,
2013-04-03 03:22:00,19.0,18.0,-100.00,WSW,255,0.0,0.0,92,0.00,,,-99.99,,2013-04-03 08:22:00,
2013-04-03 03:32:00,21.0,20.0,-100.00,ENE,65,0.0,1.0,93,0.00,,,-99.99,,2013-04-03 08:32:00,
2013-04-03 03:42:00,21.0,20.0,-100.00,ENE,65,0.0,1.0,93,0.00,,,-99.99,,2013-04-03 08:42:00,
2013-04-03 03:52:00,21.0,20.0,-100.00,ENE,65,0.0,1.0,93,0.00,,,-99.99,,2013-04-03 08:52:00,
2013-04-03 04:02:00,21.0,20.0,-100.00,ENE,65,0.0,1.0,93,0.00,,,-99.99,,2013-04-03 09:02:00,
2013-04-03 04:12:00,21.0,20.0,-100.00,ENE,65,0.0,1.0,93,0.00,,,-99.99,,2013-04-03 09:12:00,
2013-04-03 04:22:00,17.0,16.0,-100.00,WNW,290,0.0,0.0,94,0.00,,,-99.99,,2013-04-03 09:22:00,
2013-04-03 04:33:00,18.0,17.0,-100.00,NNE,15,0.0,1.0,94,0.00,,,-99.99,,2013-04-03 09:33:00,
2013-04-03 04:43:00,18.0,17.0,-100.00,NNE,15,0.0,1.0,94,0.00,,,-99.99,,2013-04-03 09:43:00,
2013-04-03 04:53:00,18.0,17.0,-100.00,NE,55,0.0,1.0,95,0.00,,,-99.99,,2013-04-03 09:53:00,
2013-04-03 05:03:00,18.0,17.0,-100.00,NE,55,0.0,1.0,95,0.00,,,-99.99,,2013-04-03 10:03:00,
2013-04-03 05:12:00,18.0,17.0,-100.00,NE,55,0.0,1.0,95,0.00,,,-99.99,,2013-04-03 10:12:00,
2013-04-03 05:22:00,18.0,17.0,-100.00,NE,55,0.0,1.0,95,0.00,,,-99.99,,2013-04-03 10:22:00,
2013-04-03 05:33:00,19.0,18.0,-100.00,NE,40,1.0,2.0,95,0.00,,,-99.99,,2013-04-03 10:33:00,
2013-04-03 05:43:00,19.0,18.0,-100.00,NE,40,1.0,2.0,95,0.00,,,-99.99,,2013-04-03 10:43:00,
2013-04-03 05:53:00,19.0,18.0,-100.00,NNE,25,0.0,1.0,95,0.00,,,-99.99,,2013-04-03 10:53:00,
2013-04-03 06:02:00,19.0,18.0,-100.00,East,100,0.0,1.0,95,0.00,,,-99.99,,2013-04-03 11:02:00,
2013-04-03 06:12:00,19.0,18.0,-100.00,East,100,0.0,1.0,95,0.00,,,-99.99,,2013-04-03 11:12:00,
2013-04-03 06:22:00,20.0,19.0,-100.00,East,85,0.0,1.0,95,0.00,,,-99.99,,2013-04-03 11:22:00,
2013-04-03 06:32:00,20.0,19.0,-100.00,ESE,105,0.0,2.0,95,0.00,,,-99.99,,2013-04-03 11:32:00,
2013-04-03 06:42:00,18.0,17.0,-100.00,SSE,155,1.0,1.0,95,0.00,,,-99.99,,2013-04-03 11:42:00,
2013-04-03 06:53:00,17.0,16.0,-100.00,SE,130,0.0,0.0,95,0.00,,,-99.99,,2013-04-03 11:53:00,
2013-04-03 07:02:00,17.0,16.0,-100.00,SE,130,0.0,0.0,95,0.00,,,-99.99,,2013-04-03 12:02:00,
2013-04-03 07:13:00,18.0,17.0,-100.00,SSE,155,0.0,0.0,95,0.00,,,-99.99,,2013-04-03 12:13:00,
2013-04-03 07:22:00,18.0,17.0,-100.00,SE,145,0.0,1.0,95,0.00,,,-99.99,,2013-04-03 12:22:00,
2013-04-03 07:32:00,23.0,22.0,-100.00,East,95,1.0,4.0,95,0.00,,,-99.99,,2013-04-03 12:32:00,
2013-04-03 07:42:00,23.0,22.0,-100.00,East,95,1.0,4.0,95,0.00,,,-99.99,,2013-04-03 12:42:00,
2013-04-03 07:52:00,26.0,25.0,-100.00,SE,125,0.0,3.0,95,0.00,,,-99.99,,2013-04-03 12:52:00,
2013-04-03 08:02:00,26.0,25.0,-100.00,SE,125,0.0,3.0,95,0.00,,,-99.99,,2013-04-03 13:02:00,
2013-04-03 08:12:00,27.0,25.0,-100.00,ENE,75,2.0,4.0,94,0.00,,,-99.99,,2013-04-03 13:12:00,
2013-04-03 08:22:00,27.0,25.0,-100.00,ENE,75,2.0,4.0,94,0.00,,,-99.99,,2013-04-03 13:22:00,
2013-04-03 08:32:00,27.0,25.0,-100.00,ENE,75,2.0,4.0,94,0.00,,,-99.99,,2013-04-03 13:32:00,
2013-04-03 08:42:00,27.0,25.0,-100.00,ENE,75,2.0,4.0,94,0.00,,,-99.99,,2013-04-03 13:42:00,
2013-04-03 08:52:00,27.0,25.0,-100.00,ENE,75,2.0,4.0,94,0.00,,,-99.99,,2013-04-03 13:52:00,
2013-04-03 09:12:00,32.0,21.0,-100.00,SE,140,8.0,10.0,64,0.00,,,-99.99,,2013-04-03 14:12:00,
2013-04-03 09:22:00,32.0,21.0,-100.00,SE,140,8.0,10.0,64,0.00,,,-99.99,,2013-04-03 14:22:00,
2013-04-03 09:32:00,33.0,18.0,-100.00,SE,145,11.0,13.0,54,0.00,,,-99.99,,2013-04-03 14:32:00,
2013-04-03 09:42:00,33.0,18.0,-100.00,SE,145,11.0,13.0,54,0.00,,,-99.99,,2013-04-03 14:42:00,
2013-04-03 09:52:00,33.0,17.0,-100.00,SE,130,10.0,13.0,52,0.00,,,-99.99,,2013-04-03 14:52:00,
2013-04-03 10:02:00,33.0,17.0,-100.00,SE,130,10.0,13.0,52,0.00,,,-99.99,,2013-04-03 15:02:00,
2013-04-03 10:12:00,34.0,17.0,-100.00,SSE,150,7.0,15.0,49,0.00,,,-99.99,,2013-04-03 15:12:00,
2013-04-03 10:23:00,34.0,17.0,-100.00,SSE,150,7.0,15.0,49,0.00,,,-99.99,,2013-04-03 15:23:00,
2013-04-03 10:33:00,35.0,16.0,-100.00,South,170,11.0,16.0,46,0.00,,,-99.99,,2013-04-03 15:33:00,
2013-04-03 10:42:00,35.0,16.0,-100.00,South,170,11.0,16.0,46,0.00,,,-99.99,,2013-04-03 15:42:00,
2013-04-03 10:53:00,35.0,16.0,-100.00,South,170,11.0,16.0,46,0.00,,,-99.99,,2013-04-03 15:53:00,
2013-04-03 11:03:00,35.0,16.0,-100.00,South,175,9.0,15.0,44,0.00,,,-99.99,,2013-04-03 16:03:00,
2013-04-03 11:12:00,36.0,17.0,-100.00,South,170,8.0,14.0,45,0.00,,,-99.99,,2013-04-03 16:12:00,
2013-04-03 11:23:00,36.0,17.0,-100.00,SE,145,9.0,14.0,44,0.00,,,-99.99,,2013-04-03 16:23:00,
2013-04-03 11:32:00,37.0,16.0,-100.00,SSE,165,12.0,16.0,42,0.00,,,-99.99,,2013-04-03 16:32:00,
2013-04-03 11:43:00,37.0,16.0,-100.00,SSE,165,12.0,16.0,42,0.00,,,-99.99,,2013-04-03 16:43:00,
2013-04-03 11:52:00,37.0,17.0,-100.00,SSE,150,10.0,16.0,42,0.00,,,-99.99,,2013-04-03 16:52:00,
2013-04-03 12:03:00,37.0,17.0,-100.00,SSE,155,11.0,15.0,41,0.00,,,-99.99,,2013-04-03 17:03:00,
2013-04-03 12:13:00,37.0,17.0,-100.00,SSE,155,11.0,15.0,41,0.00,,,-99.99,,2013-04-03 17:13:00,
2013-04-03 12:22:00,38.0,17.0,-100.00,SSE,150,10.0,16.0,41,0.00,,,-99.99,,2013-04-03 17:22:00,
2013-04-03 12:33:00,39.0,17.0,-100.00,South,175,13.0,20.0,41,0.00,,,-99.99,,2013-04-03 17:33:00,
2013-04-03 12:45:00,39.0,17.0,-100.00,South,175,13.0,20.0,41,0.00,,,-99.99,,2013-04-03 17:45:00,
2013-04-03 12:54:00,39.0,17.0,-100.00,SSE,150,13.0,17.0,39,0.00,,,-99.99,,2013-04-03 17:54:00,
2013-04-03 13:02:00,39.0,17.0,-100.00,SSE,150,13.0,17.0,39,0.00,,,-99.99,,2013-04-03 18:02:00,
2013-04-03 13:12:00,40.0,18.0,-100.00,SSE,160,12.0,19.0,41,0.00,,,-99.99,,2013-04-03 18:12:00,
2013-04-03 13:22:00,40.0,18.0,-100.00,SSE,165,11.0,17.0,42,0.00,,,-99.99,,2013-04-03 18:22:00,
2013-04-03 13:33:00,40.0,19.0,-100.00,South,170,16.0,19.0,42,0.00,,,-99.99,,2013-04-03 18:33:00,
2013-04-03 13:42:00,40.0,19.0,-100.00,South,170,16.0,19.0,42,0.00,,,-99.99,,2013-04-03 18:42:00,
2013-04-03 13:52:00,41.0,20.0,-100.00,SSE,165,15.0,23.0,44,0.00,,,-99.99,,2013-04-03 18:52:00,
2013-04-03 14:02:00,41.0,20.0,-100.00,SSE,165,15.0,23.0,44,0.00,,,-99.99,,2013-04-03 19:02:00,
2013-04-03 14:12:00,41.0,20.0,-100.00,South,170,14.0,22.0,41,0.00,,,-99.99,,2013-04-03 19:12:00,
2013-04-03 14:22:00,41.0,21.0,-100.00,SSE,165,14.0,22.0,43,0.00,,,-99.99,,2013-04-03 19:22:00,
2013-04-03 14:32:00,41.0,20.0,-100.00,South,175,17.0,23.0,42,0.00,,,-99.99,,2013-04-03 19:32:00,
2013-04-03 14:42:00,41.0,20.0,-100.00,South,175,17.0,23.0,42,0.00,,,-99.99,,2013-04-03 19:42:00,
2013-04-03 14:52:00,43.0,22.0,-100.00,South,180,12.0,20.0,44,0.00,,,-99.99,,2013-04-03 19:52:00,
2013-04-03 15:02:00,43.0,22.0,-100.00,South,180,12.0,20.0,44,0.00,,,-99.99,,2013-04-03 20:02:00,
2013-04-03 15:12:00,43.0,23.0,-100.00,South,180,10.0,22.0,44,0.00,,,-99.99,,2013-04-03 20:12:00,
2013-04-03 15:22:00,42.0,22.0,-100.00,South,170,16.0,25.0,44,0.00,,,-99.99,,2013-04-03 20:22:00,
2013-04-03 15:32:00,43.0,22.0,-100.00,South,175,15.0,24.0,44,0.00,,,-99.99,,2013-04-03 20:32:00,
2013-04-03 15:42:00,43.0,22.0,-100.00,South,175,15.0,24.0,44,0.00,,,-99.99,,2013-04-03 20:42:00,
2013-04-03 15:52:00,44.0,24.0,-100.00,South,175,13.0,22.0,44,0.00,,,-99.99,,2013-04-03 20:52:00,
2013-04-03 16:02:00,44.0,24.0,-100.00,South,175,13.0,22.0,44,0.00,,,-99.99,,2013-04-03 21:02:00,
2013-04-03 16:12:00,44.0,24.0,-100.00,SSE,165,11.0,21.0,45,0.00,,,-99.99,,2013-04-03 21:12:00,
2013-04-03 16:22:00,45.0,24.0,-100.00,South,170,11.0,19.0,43,0.00,,,-99.99,,2013-04-03 21:22:00,
2013-04-03 16:32:00,46.0,26.0,-100.00,South,185,6.0,19.0,44,0.00,,,-99.99,,2013-04-03 21:32:00,
2013-04-03 16:42:00,45.0,24.0,-100.00,South,175,17.0,22.0,44,0.00,,,-99.99,,2013-04-03 21:42:00,
2013-04-03 16:52:00,45.0,25.0,-100.00,South,185,7.0,20.0,44,0.00,,,-99.99,,2013-04-03 21:52:00,
2013-04-03 17:02:00,45.0,25.0,-100.00,South,185,7.0,20.0,44,0.00,,,-99.99,,2013-04-03 22:02:00,
2013-04-03 17:12:00,45.0,24.0,-100.00,SSW,195,10.0,17.0,44,0.00,,,-99.99,,2013-04-03 22:12:00,
2013-04-03 17:22:00,45.0,25.0,-100.00,South,180,9.0,16.0,45,0.00,,,-99.99,,2013-04-03 22:22:00,
2013-04-03 17:32:00,45.0,25.0,-100.00,South,190,11.0,21.0,45,0.00,,,-99.99,,2013-04-03 22:32:00,
2013-04-03 17:42:00,45.0,25.0,-100.00,South,190,11.0,21.0,45,0.00,,,-99.99,,2013-04-03 22:42:00,
2013-04-03 17:52:00,45.0,25.0,-100.00,South,190,7.0,18.0,45,0.00,,,-99.99,,2013-04-03 22:52:00,
2013-04-03 18:02:00,45.0,25.0,-100.00,South,190,7.0,18.0,45,0.00,,,-99.99,,2013-04-03 23:02:00,
2013-04-03 18:12:00,44.0,25.0,-100.00,South,180,8.0,17.0,46,0.00,,,-99.99,,2013-04-03 23:12:00,
2013-04-03 18:22:00,44.0,25.0,-100.00,South,185,9.0,16.0,46,0.00,,,-99.99,,2013-04-03 23:22:00,
2013-04-03 18:32:00,44.0,25.0,-100.00,South,185,7.0,17.0,48,0.00,,,-99.99,,2013-04-03 23:32:00,
2013-04-03 18:42:00,44.0,25.0,-100.00,South,185,7.0,17.0,48,0.00,,,-99.99,,2013-04-03 23:42:00,
2013-04-03 18:53:00,43.0,25.0,-100.00,South,180,10.0,18.0,50,0.00,,,-99.99,,2013-04-03 23:53:00,
2013-04-03 19:02:00,43.0,25.0,-100.00,South,180,10.0,18.0,50,0.00,,,-99.99,,2013-04-04 00:02:00,
2013-04-03 19:12:00,42.0,26.0,-100.00,South,180,11.0,17.0,51,0.00,,,-99.99,,2013-04-04 00:12:00,
2013-04-03 19:22:00,42.0,26.0,-100.00,South,175,8.0,16.0,52,0.00,,,-99.99,,2013-04-04 00:22:00,
2013-04-03 19:32:00,40.0,26.0,-100.00,South,175,6.0,13.0,56,0.00,,,-99.99,,2013-04-04 00:32:00,
2013-04-03 19:43:00,40.0,26.0,-100.00,South,175,6.0,13.0,56,0.00,,,-99.99,,2013-04-04 00:43:00,
2013-04-03 19:52:00,39.0,26.0,-100.00,SSW,195,5.0,11.0,58,0.00,,,-99.99,,2013-04-04 00:52:00,
2013-04-03 20:02:00,39.0,26.0,-100.00,SSW,195,5.0,11.0,58,0.00,,,-99.99,,2013-04-04 01:02:00,
2013-04-03 20:12:00,38.0,26.0,-100.00,South,185,5.0,9.0,61,0.00,,,-99.99,,2013-04-04 01:12:00,
2013-04-03 20:22:00,38.0,27.0,-100.00,South,180,6.0,9.0,62,0.00,,,-99.99,,2013-04-04 01:22:00,
2013-04-03 20:32:00,38.0,27.0,-100.00,South,180,6.0,9.0,62,0.00,,,-99.99,,2013-04-04 01:32:00,
2013-04-03 20:43:00,38.0,27.0,-100.00,South,180,6.0,9.0,62,0.00,,,-99.99,,2013-04-04 01:43:00,
2013-04-03 20:52:00,37.0,29.0,-100.00,SSE,155,7.0,10.0,74,0.00,,,-99.99,,2013-04-04 01:52:00,
2013-04-03 21:02:00,37.0,29.0,-100.00,SSE,155,7.0,10.0,74,0.00,,,-99.99,,2013-04-04 02:02:00,
2013-04-03 21:12:00,36.0,29.0,-100.00,South,175,7.0,10.0,75,0.00,,,-99.99,,2013-04-04 02:12:00,
2013-04-03 21:22:00,36.0,29.0,-100.00,South,175,7.0,10.0,75,0.00,,,-99.99,,2013-04-04 02:22:00,
2013-04-03 21:32:00,36.0,29.0,-100.00,South,175,5.0,10.0,76,0.00,,,-99.99,,2013-04-04 02:32:00,
2013-04-03 21:42:00,36.0,29.0,-100.00,South,175,5.0,10.0,76,0.00,,,-99.99,,2013-04-04 02:42:00,
2013-04-03 21:52:00,36.0,29.0,-100.00,South,175,5.0,10.0,76,0.00,,,-99.99,,2013-04-04 02:52:00,
2013-04-03 22:02:00,35.0,29.0,-100.00,SSE,165,4.0,10.0,78,0.00,,,-99.99,,2013-04-04 03:02:00,
2013-04-03 22:12:00,35.0,29.0,-100.00,South,170,8.0,12.0,79,0.00,,,-99.99,,2013-04-04 03:12:00,
2013-04-03 22:22:00,35.0,29.0,-100.00,South,170,8.0,12.0,79,0.00,,,-99.99,,2013-04-04 03:22:00,
2013-04-03 22:33:00,35.0,29.0,-100.00,South,170,8.0,12.0,79,0.00,,,-99.99,,2013-04-04 03:33:00,
2013-04-03 22:43:00,34.0,29.0,-100.00,South,175,6.0,12.0,79,0.00,,,-99.99,,2013-04-04 03:43:00,
2013-04-03 22:53:00,34.0,28.0,-100.00,South,180,5.0,10.0,79,0.00,,,-99.99,,2013-04-04 03:53:00,
2013-04-03 23:03:00,34.0,28.0,-100.00,South,180,5.0,10.0,78,0.00,,,-99.99,,2013-04-04 04:03:00,
2013-04-03 23:12:00,34.0,28.0,-100.00,South,180,5.0,10.0,78,0.00,,,-99.99,,2013-04-04 04:12:00,
2013-04-03 23:23:00,34.0,28.0,-100.00,South,175,6.0,10.0,77,0.00,,,-99.99,,2013-04-04 04:23:00,
2013-04-03 23:33:00,34.0,28.0,-100.00,South,180,5.0,9.0,77,0.00,,,-99.99,,2013-04-04 04:33:00,
2013-04-03 23:43:00,34.0,28.0,-100.00,South,180,5.0,9.0,77,0.00,,,-99.99,,2013-04-04 04:43:00,
2013-04-03 23:53:00,34.0,27.0,-100.00,South,175,5.0,9.0,76,0.00,,,-99.99,,2013-04-04 04:53:00,